This demonstration page uses our WeatherBlox Daily Observations layout. Learn more.

Left ArrowRight Arrow

Hourly Observations for February 28, 2021

Temp ( °F °C ) Dew Point ( °F °C ) Humidity (%) Winds ( mph kmh ) Pressure ( in mb ) Visibility ( mi km ) Precip ( " mm )
12:53 am 00:53 Mostly Cloudy 57 13.9 55 12.8 93 93 Calm 30.16 1022 9 14 0.00 0.00
1:53 am 01:53 Clear 55 12.8 53 11.7 93 93 Calm 30.16 1021 7 11 0.00 0.00
2:53 am 02:53 Mostly Clear with Mist and Fog 54 12.2 53 11.7 97 97 Calm 30.14 1021 4 6 0.00 0.00
3:53 am 03:53 Partly Cloudy with Mist and Fog 52 11.1 51 10.6 97 97 Calm 30.14 1021 5 8 0.00 0.00
3:55 am 03:55 Mostly Cloudy with Mist and Fog 52 11.1 51 10.6 97 97 Calm 30.16 1021 1 2 0.00 0.00
4:06 am 04:06 Mostly Clear with Mist and Fog 52 11.1 51 10.6 97 97 E 3 6 30.16 1021 2 3 0.00 0.00
4:14 am 04:14 Mostly Clear with Mist and Fog 53 11.7 52 11.1 96 96 Calm 30.14 1021 5 8 0.00 0.00
4:53 am 04:53 Mostly Clear with Mist and Fog 52 11.1 51 10.6 97 97 Calm 30.13 1020 5 8 0.00 0.00
4:55 am 04:55 Partly Cloudy with Mist and Fog 52 11.1 51 10.6 97 97 Calm 30.15 1021 2 2 0.00 0.00
5:02 am 05:02 Partly Cloudy with Mist and Fog 52 11.1 51 10.6 97 97 Calm 30.15 1021 5 8 0.00 0.00
5:21 am 05:21 Mostly Cloudy with Mist and Fog 51 10.6 51 10.6 100 100 Calm 30.15 1021 5 8 0.00 0.00
5:30 am 05:30 Mostly Cloudy with Mist and Fog 52 11.1 51 10.6 97 97 Calm 30.15 1021 5 8 0.00 0.00
5:53 am 05:53 Mostly Cloudy with Mist and Fog 53 11.7 52 11.1 96 96 Calm 30.13 1020 5 8 0.00 0.00
6:22 am 06:22 Cloudy with Mist and Fog 51 10.6 51 10.6 100 100 Calm 30.15 1021 4 6 0.00 0.00
6:53 am 06:53 Cloudy 54 12.2 53 11.7 97 97 Calm 30.14 1021 7 11 0.00 0.00
7:04 am 07:04 Cloudy with Mist and Fog 54 12.2 53 11.7 97 97 Calm 30.16 1021 5 8 0.00 0.00
7:28 am 07:28 Cloudy with Mist and Fog 54 12.2 53 11.7 97 97 Calm 30.16 1021 2 3 0.00 0.00
7:41 am 07:41 Cloudy with Mist and Fog 54 12.2 54 12.2 100 100 Calm 30.17 1022 2 3 0.00 0.00
7:53 am 07:53 Cloudy with Mist and Fog 55 12.8 54 12.2 96 96 Calm 30.16 1021 2 2 0.00 0.00
8:33 am 08:33 Cloudy with Mist and Fog 56 13.3 55 12.8 97 97 Calm 30.17 1022 2 3 0.00 0.00
8:43 am 08:43 Cloudy with Mist and Fog 57 13.9 56 13.3 96 96 Calm 30.18 1022 3 4 0.00 0.00
8:53 am 08:53 Cloudy with Mist and Fog 58 14.4 57 13.9 97 97 Calm 30.16 1022 3 5 0.00 0.00
9:17 am 09:17 Mostly Cloudy with Mist and Fog 60 15.6 57 13.9 90 90 Calm 30.15 1021 5 8 0.00 0.00
9:53 am 09:53 Cloudy 65 18.3 60 15.6 84 84 undefined N/A 30.15 1021 10 16 0.00 0.00
10:53 am 10:53 Cloudy 68 20 61 16.1 78 78 S 7 11 30.15 1021 10 16 0.00 0.00
11:00 am 11:00 Cloudy 68 20 61 16.1 78 78 undefined N/A 30.14 1021 10 16 0.00 0.00
11:53 am 11:53 Partly Cloudy 71 21.7 60 15.6 68 68 SW 12 19 30.11 1020 10 16 0.00 0.00
12:53 pm 12:53 Partly Cloudy 75 23.9 58 14.4 55 55 S 12 19 30.09 1019 10 16 0.00 0.00
1:53 pm 13:53 Mostly Cloudy 77 25 57 13.9 50 50 SSW 16 26 30.05 1018 10 16 0.00 0.00
3:53 pm 15:53 Mostly Cloudy 78 25.6 56 13.3 47 47 SW 10 17 30.01 1016 10 16 0.00 0.00
4:53 pm 16:53 Mostly Sunny 78 25.6 54 12.2 43 43 SSW 7 11 29.99 1016 10 16 0.00 0.00
5:53 pm 17:53 Mostly Cloudy 77 25 57 13.9 50 50 SSW 9 15 29.98 1015 10 16 0.00 0.00
6:53 pm 18:53 Clear 74 23.3 57 13.9 56 56 S 6 9 29.97 1015 10 16 0.00 0.00
7:53 pm 19:53 Mostly Cloudy 73 22.8 59 15 62 62 S 9 15 29.98 1015 10 16 0.00 0.00
8:53 pm 20:53 Clear 71 21.7 59 15 66 66 SW 5 7 29.98 1015 10 16 0.00 0.00
9:53 pm 21:53 Clear 69 20.6 59 15 70 70 SSW 5 7 29.97 1015 10 16 0.00 0.00
10:53 pm 22:53 Clear 67 19.4 59 15 76 76 SW 5 7 29.95 1014 10 16 0.00 0.00
11:53 pm 23:53 Clear 68 20 59 15 73 73 SSW 6 9 29.93 1014 10 16 0.00 0.00

Powered by AerisWeather